| time (UTC) | temp C | wind direction | speed KPH | gust KPH | rain 1hr cm | rain 24hr cm | rain mn cm | humidity % | barometer mb |
| 20260502203901 | 18 | 258 | 17.7 | 30.6 | 0.00 | 0.00 | 0.00 | 37 | 1010.6 |
| 20260502203005 | 17 | 275 | 17.7 | 32.2 | 0.00 | 0.00 | 0.00 | 40 | 1010.8 |
| 20260502202917 | 17 | 244 | 17.7 | 30.6 | 0.00 | 0.00 | 0.00 | 38 | 1010.8 |
| 20260502201842 | 17 | 247 | 17.7 | 32.2 | 0.00 | 0.00 | 0.00 | 38 | 1011.1 |
| 20260502201602 | 17 | 232 | 20.9 | 29.0 | 0.00 | 0.00 | 0.00 | 38 | 1011.1 |
| 20260502200820 | 17 | 226 | 16.1 | 32.2 | 0.00 | 0.00 | 0.00 | 36 | 1011.2 |
| 20260502200002 | 16 | 241 | 17.7 | 29.0 | 0.00 | 0.00 | 0.00 | 36 | 1011.5 |
| 20260502194602 | 16 | 281 | 19.3 | 32.2 | 0.00 | 0.00 | 0.00 | 37 | 1011.9 |
| 20260502193531 | 16 | 243 | 22.5 | 32.2 | 0.00 | 0.00 | 0.00 | 37 | 1011.9 |
| 20260502193003 | 16 | 229 | 24.1 | 33.8 | 0.00 | 0.00 | 0.00 | 36 | 1012.1 |
| 20260502192504 | 16 | 268 | 17.7 | 29.0 | 0.00 | 0.00 | 0.00 | 37 | 1012.2 |
| 20260502191603 | 16 | 243 | 19.3 | 32.2 | 0.00 | 0.00 | 0.00 | 39 | 1012.4 |
| 20260502191512 | 16 | 252 | 17.7 | 30.6 | 0.00 | 0.00 | 0.00 | 41 | 1012.4 |
| 20260502190447 | 16 | 276 | 16.1 | 30.6 | 0.00 | 0.00 | 0.00 | 38 | 1012.7 |
| 20260502190003 | 15 | 255 | 17.7 | 32.2 | 0.00 | 0.00 | 0.00 | 39 | 1012.7 |
| 20260502185421 | 16 | 278 | 14.5 | 27.4 | 0.00 | 0.00 | 0.00 | 37 | 1012.8 |
| 20260502184411 | 15 | 218 | 14.5 | 29.0 | 0.00 | 0.00 | 0.00 | 39 | 1013.0 |
| 20260502183406 | 15 | 287 | 14.5 | 29.0 | 0.00 | 0.00 | 0.00 | 41 | 1013.3 |
| 20260502183002 | 15 | 226 | 14.5 | 30.6 | 0.00 | 0.00 | 0.00 | 42 | 1013.4 |
| 20260502182344 | 15 | 262 | 16.1 | 29.0 | 0.00 | 0.00 | 0.00 | 38 | 1013.5 |
| 20260502181604 | 14 | 223 | 16.1 | 29.0 | 0.00 | 0.00 | 0.00 | 39 | 1013.6 |
| 20260502181343 | 14 | 206 | 14.5 | 27.4 | 0.00 | 0.00 | 0.00 | 41 | 1013.6 |
| 20260502180325 | 14 | 232 | 14.5 | 30.6 | 0.00 | 0.00 | 0.00 | 38 | 1013.9 |
| 20260502170128 | 13 | 281 | 14.5 | 25.7 | 0.00 | 0.00 | 0.00 | 45 | 1014.9 |
| 20260502170110 | 12 | 231 | 17.7 | 27.4 | 0.00 | 0.00 | 0.00 | 42 | 1015.0 |
| 20260502164130 | 12 | 274 | 12.9 | 25.7 | 0.00 | 0.00 | 0.00 | 40 | 1015.1 |
| 20260502163103 | 12 | 229 | 6.4 | 25.7 | 0.00 | 0.00 | 0.00 | 45 | 1015.4 |
| 20260502163101 | 12 | 231 | 12.9 | 24.1 | 0.00 | 0.00 | 0.00 | 45 | 1015.4 |
| 20260502161502 | 11 | 278 | 11.3 | 25.7 | 0.00 | 0.00 | 0.00 | 45 | 1015.6 |
| 20260502160913 | 12 | 280 | 14.5 | 32.2 | 0.00 | 0.00 | 0.00 | 46 | 1015.6 |
| 20260502151659 | 11 | 249 | 19.3 | 27.4 | 0.00 | 0.00 | 0.00 | 51 | 1016.1 |
| 20260502151503 | 10 | 277 | 20.9 | 27.4 | 0.00 | 0.00 | 0.00 | 51 | 1016.2 |
| 20260502150652 | 11 | 266 | 16.1 | 25.7 | 0.00 | 0.00 | 0.00 | 50 | 1016.2 |
| 20260502140104 | 7 | 258 | 9.7 | 17.7 | 0.00 | 0.00 | 0.00 | 61 | 1016.8 |
| 20260502130340 | 5 | 268 | 6.4 | 11.3 | 0.00 | 0.00 | 0.00 | 69 | 1016.8 |
| 20260502123328 | 3 | 255 | 4.8 | 9.7 | 0.00 | 0.00 | 0.00 | 72 | 1016.9 |
| 20260502123104 | 3 | 233 | 6.4 | 11.3 | 0.00 | 0.00 | 0.00 | 74 | 1016.9 |
| 20260502122331 | 3 | 238 | 3.2 | 6.4 | 0.00 | 0.00 | 0.00 | 74 | 1016.8 |
| 20260502121505 | 2 | 251 | 1.6 | 3.2 | 0.00 | 0.00 | 0.00 | 76 | 1016.9 |
| 20260502121334 | 2 | 251 | 0.0 | 3.2 | 0.00 | 0.00 | 0.00 | 76 | 1016.8 |
| 20260502120333 | 2 | 259 | 1.6 | 3.2 | 0.00 | 0.00 | 0.00 | 75 | 1016.8 |
| 20260502120106 | 2 | 246 | 3.2 | 4.8 | 0.00 | 0.00 | 0.00 | 74 | 1016.8 |
| 20260502115306 | 2 | 243 | 0.0 | 3.2 | 0.00 | 0.00 | 0.00 | 74 | 1016.7 |
| 20260502114503 | 1 | 243 | 1.6 | 4.8 | 0.00 | 0.00 | 0.00 | 74 | 1016.7 |
| 20260502113110 | 1 | 208 | 1.6 | 1.6 | 0.00 | 0.00 | 0.00 | 74 | 1016.6 |
| 20260502113104 | 1 | 208 | 1.6 | 3.2 | 0.00 | 0.00 | 0.00 | 74 | 1016.6 |
| 20260502112112 | 1 | 211 | 1.6 | 3.2 | 0.00 | 0.00 | 0.00 | 75 | 1016.5 |
| 20260502111503 | 1 | 221 | 1.6 | 4.8 | 0.00 | 0.00 | 0.00 | 75 | 1016.6 |
| 20260502111111 | 1 | 221 | 1.6 | 3.2 | 0.00 | 0.00 | 0.00 | 76 | 1016.5 |
| 20260502110103 | 1 | 209 | 0.0 | 3.2 | 0.00 | 0.00 | 0.00 | 75 | 1016.6 |
| 20260502105005 | 1 | 255 | 0.0 | 0.0 | 0.00 | 0.00 | 0.00 | 74 | 1016.5 |
| 20260502104502 | 1 | 255 | 0.0 | 3.2 | 0.00 | 0.00 | 0.00 | 74 | 1016.6 |
| 20260502103934 | 1 | 233 | 0.0 | 1.6 | 0.00 | 0.00 | 0.00 | 74 | 1016.6 |
| 20260502103110 | 1 | 213 | 1.6 | 3.2 | 0.00 | 0.00 | 0.00 | 74 | 1016.7 |
| 20260502102905 | 1 | 213 | 0.0 | 1.6 | 0.00 | 0.00 | 0.00 | 74 | 1016.6 |
| 20260502101909 | 1 | 236 | 0.0 | 1.6 | 0.00 | 0.00 | 0.00 | 74 | 1016.5 |
| 20260502101506 | 1 | 226 | 0.0 | 3.2 | 0.00 | 0.00 | 0.00 | 75 | 1016.6 |
| 20260502100910 | 1 | 250 | 0.0 | 1.6 | 0.00 | 0.00 | 0.00 | 75 | 1016.5 |
| 20260502100104 | 1 | 238 | 0.0 | 4.8 | 0.00 | 0.00 | 0.00 | 74 | 1016.5 |
| 20260502091502 | 1 | 204 | 3.2 | 6.4 | 0.00 | 0.00 | 0.00 | 72 | 1016.5 |
| 20260502090837 | 2 | 205 | 3.2 | 4.8 | 0.00 | 0.00 | 0.00 | 72 | 1016.4 |
| 20260502090105 | 2 | 212 | 3.2 | 6.4 | 0.00 | 0.00 | 0.00 | 70 | 1016.5 |
| 20260502071502 | 2 | 222 | 0.0 | 1.6 | 0.00 | 0.00 | 0.00 | 71 | 1016.6 |
| 20260502070708 | 2 | 222 | 0.0 | 0.0 | 0.00 | 0.00 | 0.00 | 69 | 1016.6 |
| 20260502070104 | 2 | 222 | 0.0 | 3.2 | 0.00 | 0.00 | 0.00 | 68 | 1016.6 |
| 20260502065705 | 2 | 223 | 0.0 | 3.2 | 0.00 | 0.00 | 0.00 | 67 | 1016.6 |
| 20260502064704 | 2 | 222 | 1.6 | 3.2 | 0.00 | 0.00 | 0.00 | 67 | 1016.6 |
| 20260502064503 | 2 | 222 | 1.6 | 4.8 | 0.00 | 0.00 | 0.00 | 67 | 1016.7 |
| 20260502063652 | 2 | 221 | 1.6 | 3.2 | 0.00 | 0.00 | 0.00 | 68 | 1016.7 |
| 20260502063104 | 2 | 221 | 3.2 | 4.8 | 0.00 | 0.00 | 0.00 | 69 | 1016.7 |
| 20260502062620 | 3 | 236 | 1.6 | 1.6 | 0.00 | 0.00 | 0.00 | 69 | 1016.7 |
| 20260502061549 | 3 | 236 | 0.0 | 1.6 | 0.00 | 0.00 | 0.00 | 69 | 1016.7 |
| 20260502061502 | 2 | 243 | 3.2 | 3.2 | 0.00 | 0.00 | 0.00 | 68 | 1016.7 |
| 20260502055433 | 3 | 252 | 1.6 | 3.2 | 0.00 | 0.00 | 0.00 | 66 | 1016.7 |
| 20260502054501 | 3 | 240 | 1.6 | 3.2 | 0.00 | 0.00 | 0.00 | 66 | 1016.8 |
| 20260502054414 | 3 | 240 | 0.0 | 1.6 | 0.00 | 0.00 | 0.00 | 66 | 1016.7 |
| 20260502053354 | 3 | 240 | 0.0 | 1.6 | 0.00 | 0.00 | 0.00 | 67 | 1016.7 |
| 20260502053103 | 3 | 240 | 1.6 | 3.2 | 0.00 | 0.00 | 0.00 | 69 | 1016.8 |
| 20260502052348 | 3 | 240 | 0.0 | 0.0 | 0.00 | 0.00 | 0.00 | 66 | 1016.7 |
| 20260502051503 | 3 | 240 | 0.0 | 3.2 | 0.00 | 0.00 | 0.00 | 65 | 1016.7 |
| 20260502050154 | 3 | 240 | 0.0 | 0.0 | 0.00 | 0.00 | 0.00 | 65 | 1016.6 |
| 20260502045202 | 3 | 240 | 0.0 | 0.0 | 0.00 | 0.00 | 0.00 | 66 | 1016.5 |
| 20260502044502 | 3 | 240 | 0.0 | 1.6 | 0.00 | 0.00 | 0.00 | 67 | 1016.6 |
| 20260502044222 | 3 | 240 | 0.0 | 0.0 | 0.00 | 0.00 | 0.00 | 67 | 1016.5 |
| 20260502043157 | 3 | 240 | 0.0 | 0.0 | 0.00 | 0.00 | 0.00 | 66 | 1016.5 |
| 20260502043108 | 3 | 240 | 1.6 | 1.6 | 0.00 | 0.00 | 0.00 | 66 | 1016.6 |
| 20260502042206 | 3 | 240 | 0.0 | 0.0 | 0.00 | 0.00 | 0.00 | 64 | 1016.5 |
| 20260502041502 | 3 | 240 | 0.0 | 1.6 | 0.00 | 0.00 | 0.00 | 63 | 1016.5 |
| 20260502041207 | 4 | 240 | 0.0 | 1.6 | 0.00 | 0.00 | 0.00 | 62 | 1016.5 |
| 20260502040227 | 4 | 240 | 0.0 | 1.6 | 0.00 | 0.00 | 0.00 | 62 | 1016.5 |
| 20260502035224 | 5 | 240 | 0.0 | 1.6 | 0.00 | 0.00 | 0.00 | 61 | 1016.5 |
| 20260502034503 | 5 | 240 | 1.6 | 3.2 | 0.00 | 0.00 | 0.00 | 59 | 1016.6 |
| 20260502034228 | 5 | 240 | 0.0 | 1.6 | 0.00 | 0.00 | 0.00 | 59 | 1016.5 |
| 20260502033226 | 5 | 240 | 0.0 | 1.6 | 0.00 | 0.00 | 0.00 | 59 | 1016.6 |
| 20260502033102 | 5 | 240 | 1.6 | 3.2 | 0.00 | 0.00 | 0.00 | 59 | 1016.6 |
| 20260502032156 | 5 | 240 | 0.0 | 3.2 | 0.00 | 0.00 | 0.00 | 60 | 1016.6 |
| 20260502031503 | 5 | 239 | 1.6 | 4.8 | 0.00 | 0.00 | 0.00 | 59 | 1016.7 |
| 20260502031130 | 5 | 264 | 1.6 | 3.2 | 0.00 | 0.00 | 0.00 | 59 | 1016.6 |
| 20260502030121 | 5 | 264 | 1.6 | 1.6 | 0.00 | 0.00 | 0.00 | 58 | 1016.6 |
| 20260502025134 | 5 | 265 | 0.0 | 3.2 | 0.00 | 0.00 | 0.00 | 57 | 1016.5 |
| 20260502024503 | 5 | 265 | 1.6 | 1.6 | 0.00 | 0.00 | 0.00 | 58 | 1016.6 |
| 20260502024128 | 5 | 265 | 0.0 | 3.2 | 0.00 | 0.00 | 0.00 | 58 | 1016.5 |
| 20260502023103 | 6 | 266 | 0.0 | 1.6 | 0.00 | 0.00 | 0.00 | 56 | 1016.5 |
| 20260502022048 | 6 | 275 | 0.0 | 1.6 | 0.00 | 0.00 | 0.00 | 56 | 1016.4 |
| 20260502021502 | 6 | 275 | 0.0 | 3.2 | 0.00 | 0.00 | 0.00 | 54 | 1016.5 |
| 20260502021032 | 6 | 275 | 0.0 | 1.6 | 0.00 | 0.00 | 0.00 | 53 | 1016.4 |
| 20260502020022 | 7 | 276 | 1.6 | 1.6 | 0.00 | 0.00 | 0.00 | 53 | 1016.3 |
| 20260502015013 | 7 | 283 | 0.0 | 0.0 | 0.00 | 0.00 | 0.00 | 53 | 1016.2 |
| 20260502014502 | 7 | 284 | 1.6 | 3.2 | 0.00 | 0.00 | 0.00 | 52 | 1016.2 |
| 20260502013939 | 7 | 308 | 0.0 | 1.6 | 0.00 | 0.00 | 0.00 | 50 | 1016.1 |
| 20260502013102 | 8 | 308 | 1.6 | 3.2 | 0.00 | 0.00 | 0.00 | 49 | 1016.1 |
| 20260502012904 | 8 | 308 | 1.6 | 3.2 | 0.00 | 0.00 | 0.00 | 48 | 1016.0 |
| 20260502011841 | 9 | 309 | 1.6 | 4.8 | 0.00 | 0.00 | 0.00 | 44 | 1016.0 |
| 20260502011604 | 9 | 308 | 3.2 | 6.4 | 0.00 | 0.00 | 0.00 | 43 | 1015.9 |
| 20260502010843 | 10 | 309 | 1.6 | 6.4 | 0.00 | 0.00 | 0.00 | 46 | 1015.9 |
| 20260502010002 | 10 | 300 | 4.8 | 8.0 | 0.00 | 0.00 | 0.00 | 44 | 1015.9 |
| 20260502005845 | 10 | 300 | 4.8 | 9.7 | 0.00 | 0.00 | 0.00 | 43 | 1015.8 |
| 20260502004903 | 10 | 296 | 8.0 | 16.1 | 0.00 | 0.00 | 0.00 | 41 | 1015.9 |
| 20260502004611 | 10 | 303 | 9.7 | 17.7 | 0.00 | 0.00 | 0.00 | 42 | 1015.9 |
| 20260502003838 | 10 | 313 | 8.0 | 16.1 | 0.00 | 0.00 | 0.00 | 41 | 1015.9 |
| 20260502003002 | 10 | 297 | 3.2 | 11.3 | 0.00 | 0.00 | 0.00 | 43 | 1015.9 |
| 20260502002812 | 10 | 274 | 4.8 | 9.7 | 0.00 | 0.00 | 0.00 | 40 | 1015.9 |
| 20260502001753 | 10 | 283 | 8.0 | 14.5 | 0.00 | 0.00 | 0.00 | 40 | 1015.8 |
| 20260502001602 | 10 | 276 | 8.0 | 14.5 | 0.00 | 0.00 | 0.00 | 40 | 1015.9 |
| 20260502000758 | 10 | 330 | 9.7 | 14.5 | 0.00 | 0.00 | 0.00 | 42 | 1015.8 |
| 20260502000002 | 10 | 311 | 11.3 | 14.5 | 0.00 | 0.00 | 0.00 | 42 | 1015.8 |
| 20260501234711 | 10 | 323 | 6.4 | 17.7 | 0.00 | 0.00 | 0.00 | 44 | 1015.8 |
| 20260501234602 | 9 | 332 | 8.0 | 17.7 | 0.00 | 0.00 | 0.00 | 45 | 1015.8 |
| 20260501233708 | 10 | 334 | 11.3 | 24.1 | 0.00 | 0.00 | 0.00 | 40 | 1015.8 |
| 20260501233003 | 10 | 332 | 11.3 | 19.3 | 0.00 | 0.00 | 0.00 | 39 | 1015.9 |
| 20260501232635 | 10 | 330 | 12.9 | 24.1 | 0.00 | 0.00 | 0.00 | 40 | 1015.7 |
| 20260501231617 | 11 | 335 | 8.0 | 22.5 | 0.00 | 0.00 | 0.00 | 38 | 1015.7 |
| 20260501231608 | 11 | 324 | 9.7 | 24.1 | 0.00 | 0.00 | 0.00 | 38 | 1015.7 |
| 20260501230003 | 11 | 41 | 11.3 | 32.2 | 0.00 | 0.00 | 0.00 | 42 | 1015.9 |
| 20260501225440 | 11 | 330 | 9.7 | 30.6 | 0.00 | 0.00 | 0.00 | 41 | 1015.9 |
| 20260501224602 | 10 | 333 | 9.7 | 19.3 | 0.00 | 0.00 | 0.00 | 38 | 1015.9 |
| 20260501224436 | 11 | 337 | 8.0 | 22.5 | 0.00 | 0.00 | 0.00 | 39 | 1015.9 |
| 20260501223403 | 10 | 320 | 14.5 | 22.5 | 0.00 | 0.00 | 0.00 | 38 | 1015.8 |
| 20260501223006 | 10 | 295 | 16.1 | 24.1 | 0.00 | 0.00 | 0.00 | 40 | 1015.9 |
| 20260501221606 | 10 | 345 | 4.8 | 17.7 | 0.00 | 0.00 | 0.00 | 40 | 1016.0 |
| 20260501221253 | 11 | 1 | 3.2 | 16.1 | 0.00 | 0.00 | 0.00 | 39 | 1015.9 |
| 20260501220249 | 11 | 47 | 3.2 | 9.7 | 0.00 | 0.00 | 0.00 | 40 | 1015.9 |
| 20260501220107 | 10 | 47 | 3.2 | 14.5 | 0.00 | 0.00 | 0.00 | 40 | 1015.9 |
| 20260501215226 | 10 | 342 | 12.9 | 20.9 | 0.00 | 0.00 | 0.00 | 39 | 1015.9 |
| 20260501214502 | 10 | 320 | 16.1 | 22.5 | 0.00 | 0.00 | 0.00 | 40 | 1015.9 |
| 20260501214236 | 10 | 333 | 11.3 | 20.9 | 0.00 | 0.00 | 0.00 | 43 | 1015.9 |
| 20260501213228 | 10 | 331 | 8.0 | 22.5 | 0.00 | 0.00 | 0.00 | 43 | 1015.8 |
| 20260501213113 | 10 | 346 | 4.8 | 24.1 | 0.00 | 0.00 | 0.00 | 40 | 1015.9 |
| 20260501212230 | 10 | 349 | 12.9 | 22.5 | 0.00 | 0.00 | 0.00 | 44 | 1015.9 |
| 20260501211503 | 10 | 334 | 12.9 | 20.9 | 0.00 | 0.00 | 0.00 | 44 | 1016.1 |
| 20260501211219 | 10 | 350 | 8.0 | 20.9 | 0.00 | 0.00 | 0.00 | 40 | 1016.0 |
| 20260501210103 | 10 | 288 | 11.3 | 22.5 | 0.00 | 0.00 | 0.00 | 43 | 1016.0 |
| 20260501205031 | 10 | 333 | 9.7 | 19.3 | 0.00 | 0.00 | 0.00 | 40 | 1016.1 |
| 20260501204503 | 10 | 10 | 9.7 | 20.9 | 0.00 | 0.00 | 0.00 | 41 | 1016.2 |